Погода в Татарских Юнках

Россия / Республика Мордовия     54°11′05″N   43°20′33″E
темп.,
°C
ветер,
м/с
пор.,
м/с
влажн.,
%
обл.,
%
осадки,
мм/ч
давл.,
гПа
погр.,
м
6 мая, чт
чт600:00+9юз5147196 0.0 1012430
03:00+8юз5138042 0.0 1013296
06:00+8ююз4118354 0.0 1013247
09:00+13ююз61066100 0.0 1014527
12:00+16ююз81055100 0.0 10131347
15:00+17ююз81154100 0.0 10121806
18:00+15ююз71263100 0.0 1012822
21:00+13ю61471100 0.0 1012472
7 мая, пт
пт700:00+13ю61371100 0.1 1011371
03:00+12ю61466100 0.1 1010420
06:00+12ю51273100 0.0 1010588
09:00+10зсз5686100 0.3 1011631
12:00+6сз4889100 1.8 1014435
15:00+11з3668100 2.1 10151243
18:00+13зюз13571 0.1 1015289
21:00+8юз227253 0.1 101716
8 мая, сб
сб800:00+6ю3382100 0.0 101838
03:00+5ю348820 0.0 101851
06:00+7ююв36875 0.0 1017173
09:00+11юв6865100 0.0 1016795
12:00+14ююв685463 0.0 10131265
15:00+16ю71152100 0.0 10101345
18:00+15ю71362100 0.0 10091026
21:00+12ююз71388100 0.3 1009752
9 мая, вс
вс900:00+11ююз51095100 2.3 1008608
03:00+9зюз3896100 6.4 1010445
06:00+8з5891100 0.5 1012571
09:00+9зсз6679100 0.6 1014935
12:00+9сз5668100 0.1 10161129
15:00+10ссз5666100 0.1 10171201
18:00+8сз3674100 0.2 1020757
21:00+7ссз4877100 0.3 1022556
10 мая, пн
пн1000:00+5ссз3882100 0.0 1023282
03:00+4с4119142 0.0 1025279
06:00+5ссв6138750 0.0 1027560
09:00+10ссв710621 0.0 1028899
12:00+13св79470 0.0 10281149
15:00+14св78474 0.0 10281299
18:00+13св59594 0.0 1029841
21:00+8св411765 0.0 1030226